Wind_Speed
17 23 17 15 19 22 15 12 9 7 8 4 9 12 14 24 27 29 32 37 40 39 37 35 33 29 26 24 22 19 16 14 11 9 5 4 5 8 9 10 13 17 20 21
13 21 18 14 17 21 18 15 16 22 6 4 5 14 14 24 28 28 31 37 39 38 36 35 32 30 28 25 21 17 14 13 11 8 5 5 7 9 9 12 16 19 20 23
5 9 11 8 14 21 15 16 21 9 4 3 4 7 9 22 28 31 36 39 40 39 36 34 33 29 27 23 19 16 14 13 11 7 5 6 9 9 11 14 18 20 21 23
2 1 2 3 3 16 20 10 6 4 5 2 4 9 11 21 29 32 36 37 37 36 34 32 28 26 23 21 17 15 14 13 9 5 5 8 9 10 13 16 19 21 22 24
2 3 5 4 5 1 4 3 1 4 4 5 15 9 6 14 23 28 31 32 32 31 31 29 26 24 22 20 16 14 14 11 7 5 6 7 8 11 15 18 20 22 24 26
4 2 2 3 4 3 1 2 2 1 8 9 9 4 3 9 18 22 25 26 28 28 28 25 26 25 22 18 15 14 11 8 6 5 6 7 10 14 17 20 21 23 25 26
2 2 7 5 3 1 2 4 2 3 11 11 5 2 17 15 19 22 23 24 26 27 26 26 26 24 19 15 14 12 10 6 5 5 5 8 11 16 19 21 23 25 27 26
2 1 5 2 4 1 3 2 3 1 9 15 21 30 27 25 25 25 27 27 25 25 26 25 23 19 15 14 13 10 7 5 4 4 6 10 14 17 19 22 25 27 27 28
6 5 2 2 2 3 2 5 4 15 21 28 34 32 30 29 28 28 28 27 25 25 25 21 17 12 15 14 11 7 5 4 4 5 8 12 15 18 21 24 26 27 28 29
2 2 1 1 3 3 6 9 11 20 27 31 36 31 30 29 28 26 24 24 22 22 22 21 17 15 11 10 8 5 5 4 4 7 10 13 16 20 23 24 25 25 26 27
4 3 0 5 5 9 13 16 19 20 24 29 32 31 30 28 26 24 23 22 19 18 18 18 16 13 11 8 6 5 4 3 6 9 13 16 18 21 23 22 21 22 22 23
5 9 4 3 14 19 20 22 22 25 27 27 28 30 27 26 23 22 21 19 18 16 15 16 14 12 9 7 6 4 3 5 8 12 15 18 21 22 21 22 22 20 20 19
2 6 5 17 23 21 22 23 24 27 28 29 25 25 24 24 20 19 17 17 15 15 14 14 12 9 8 6 4 3 4 8 11 15 18 21 22 24 26 24 22 21 21 22
12 21 14 21 15 22 25 26 27 26 25 25 25 23 22 22 20 17 16 15 15 14 13 12 10 8 7 5 2 4 8 11 14 17 20 21 22 22 23 25 27 27 24 24
14 3 13 20 26 27 28 30 29 28 26 25 21 21 19 20 19 17 16 15 14 13 12 10 9 8 5 1 3 7 10 13 16 18 20 20 20 21 23 23 26 28 29 28
11 17 24 30 31 31 32 30 31 29 25 24 21 19 18 17 18 17 16 14 13 13 11 9 8 5 2 3 6 10 12 15 17 19 19 20 20 22 23 24 26 26 29 30
25 19 26 31 34 34 32 30 28 28 26 23 21 20 19 19 19 18 17 15 12 11 9 7 5 3 3 6 9 12 14 16 18 18 19 19 21 22 23 24 24 27 28 29
13 15 23 32 38 35 30 28 27 25 23 22 21 19 18 16 17 17 16 14 12 11 9 6 3 2 5 8 11 13 16 17 18 19 20 21 22 22 23 23 26 28 29 29
10 17 23 31 33 31 29 28 26 23 22 21 20 19 17 16 16 16 14 12 10 8 7 4 1 4 7 10 12 15 17 18 19 20 21 22 22 23 24 26 27 28 29 29
18 23 26 31 30 29 30 27 25 23 21 20 20 19 19 17 15 14 13 12 10 7 4 1 3 6 9 11 13 15 17 18 20 21 22 22 23 25 25 25 27 28 28 28
26 29 34 35 34 31 28 27 25 24 21 18 17 17 16 16 13 11 11 10 9 5 1 2 5 7 10 13 15 17 18 20 21 22 23 24 25 25 27 28 28 29 28 28
32 37 37 36 34 31 27 24 22 22 21 19 17 15 15 16 15 14 11 5 5 2 2 4 7 9 12 14 16 18 19 20 21 22 23 24 25 27 27 28 29 27 27 26
37 37 37 35 34 31 27 23 20 19 19 17 16 16 14 14 12 9 8 6 3 1 3 5 8 11 13 16 18 19 20 21 22 23 24 24 25 25 26 26 26 26 25 25
38 37 36 34 32 30 29 25 21 19 18 18 16 13 11 12 11 8 6 4 1 2 5 7 9 13 15 17 19 19 20 21 22 23 24 24 24 24 24 25 25 24 24 24
38 37 34 32 29 27 26 24 22 20 19 19 17 15 12 9 5 6 4 1 1 3 6 9 11 14 16 17 18 19 20 21 23 24 23 23 23 23 23 23 23 23 23 22
36 33 31 27 25 25 24 23 21 21 18 18 16 13 10 7 6 4 2 0 3 5 8 11 14 16 17 18 19 20 21 22 22 22 22 21 21 22 22 22 21 20 20 20
32 30 28 26 23 22 20 19 19 20 16 13 12 12 9 7 5 3 0 2 5 8 11 13 14 16 17 18 19 20 22 22 21 22 21 19 20 21 21 21 19 19 19 19
Wind_Direction
243 251 245 238 192 186 196 203 195 263 213 208 176 166 167 157 157 160 168 176 183 183 184 187 187 189 191 194 194 196 196 196 198 205 222 261 299 315 316 317 320 324 324 324
281 245 223 243 196 197 205 204 222 270 299 136 123 122 136 157 161 167 173 181 187 187 189 189 191 192 192 194 195 198 201 203 204 213 236 275 304 315 315 319 323 325 327 328
333 140 170 223 215 186 193 200 198 224 217 165 117 114 154 163 173 176 181 187 191 192 193 192 194 195 193 193 195 199 205 204 208 220 250 290 308 311 319 323 326 329 329 329
317 280 50 316 200 176 183 196 193 142 99 132 128 110 153 184 184 186 188 192 193 193 193 194 194 193 192 192 195 202 204 204 209 227 275 298 307 319 323 326 330 331 330 330
357 300 291 2 20 115 157 279 147 215 120 120 131 102 55 188 198 198 196 197 196 195 194 192 192 190 189 188 195 201 200 200 212 248 284 300 311 320 326 329 330 330 331 331
358 19 4 268 346 12 44 303 284 185 161 159 153 135 229 186 193 196 194 195 192 190 189 189 185 186 186 189 194 193 192 202 228 268 290 303 318 325 329 329 329 328 328 331
284 301 289 255 271 233 134 234 299 279 184 165 148 173 146 153 159 175 180 181 180 179 182 182 179 181 183 187 185 183 191 208 250 273 293 311 322 326 328 328 326 327 328 331
122 322 288 319 341 82 203 16 14 98 153 133 126 132 129 131 136 148 154 159 166 166 166 168 172 178 180 176 175 182 196 228 247 275 302 317 323 327 326 327 328 329 330 331
180 211 279 338 25 86 120 124 93 120 139 143 136 132 132 129 133 137 142 145 150 155 155 157 167 179 172 170 176 187 209 218 250 295 318 323 326 327 328 329 330 331 334 335
84 326 160 185 126 118 127 129 130 132 137 145 139 140 136 136 136 138 142 145 152 156 156 154 157 160 170 172 178 197 204 229 283 310 320 326 327 329 330 332 333 334 334 331
261 282 314 217 193 151 131 135 137 136 141 142 140 140 140 138 139 138 139 140 146 149 151 154 159 164 168 177 189 193 212 266 303 321 326 326 328 331 331 333 336 329 328 328
216 204 166 175 169 155 144 144 147 143 140 141 143 141 141 138 139 141 142 145 148 151 154 156 161 167 173 179 184 203 252 302 322 325 325 327 327 325 327 332 335 334 332 331
219 173 157 146 153 157 147 147 149 145 143 142 141 140 143 140 141 144 145 149 153 152 155 158 164 171 173 178 194 240 311 324 324 325 327 328 327 328 330 333 335 337 339 338
151 129 109 144 153 156 150 148 147 141 140 139 140 143 143 143 145 149 149 150 154 156 157 161 167 172 175 187 238 318 322 323 324 326 327 326 325 328 330 332 335 340 343 341
152 161 169 153 151 151 150 148 142 139 140 139 143 143 147 146 146 148 149 152 157 159 161 167 170 172 174 210 308 318 321 322 324 326 325 323 324 325 330 333 336 336 337 339
139 136 146 151 151 152 154 153 146 144 145 142 142 142 144 144 144 145 147 153 161 161 163 165 170 177 212 295 317 320 322 323 324 324 323 323 327 331 333 334 334 334 335 338
134 132 151 154 159 158 158 157 153 149 147 147 146 146 147 145 143 144 146 150 156 155 157 166 182 208 285 317 320 320 321 323 324 324 324 327 330 332 333 331 331 331 333 336
201 185 175 169 164 160 158 155 151 148 148 147 145 147 147 147 145 147 149 152 157 161 163 173 193 284 318 316 317 320 323 325 325 325 327 329 331 331 328 329 331 331 332 333
190 176 168 167 163 159 153 152 152 151 149 148 147 145 144 144 145 145 149 154 158 161 163 168 269 313 315 317 320 323 324 325 327 327 327 328 328 328 329 330 330 330 332 333
163 164 161 158 159 158 153 153 152 150 148 149 149 147 146 145 149 151 152 153 154 162 165 214 309 316 316 319 324 324 326 327 327 327 329 329 328 329 329 329 329 329 332 333
158 156 155 155 155 155 154 153 153 149 146 150 151 149 149 145 146 148 153 158 153 153 174 306 315 317 319 326 327 329 329 328 328 329 329 329 328 328 328 328 330 332 332 332
156 155 153 154 152 149 149 150 151 147 147 149 151 151 151 147 151 153 152 156 151 163 297 315 319 322 325 326 326 327 327 327 328 328 328 329 328 328 329 330 329 331 332 332
156 154 152 151 149 145 145 147 148 148 147 149 149 147 149 143 144 154 153 154 163 227 312 318 321 320 324 325 327 328 328 328 328 328 329 328 330 331 330 330 332 333 334 334
154 153 151 150 148 146 147 148 148 147 147 143 142 143 147 149 151 152 155 159 162 324 319 320 323 325 327 330 329 328 328 328 329 329 329 331 331 331 333 334 335 336 335 338
154 153 152 152 152 152 149 148 149 147 147 145 144 143 145 148 154 153 150 149 302 318 325 326 326 328 329 328 328 328 330 331 330 329 331 333 335 335 337 337 337 338 341 339
154 153 153 156 155 152 151 151 151 149 152 148 145 147 149 145 144 147 155 292 330 330 326 327 330 329 329 329 330 331 331 330 329 331 333 334 336 338 338 338 341 344 348 351
153 154 154 153 151 150 149 152 154 150 152 151 151 148 152 152 151 150 147 332 332 331 330 329 328 329 331 330 331 331 331 331 332 331 332 334 337 338 339 341 344 348 352 350
Height
1397 1395 1397 1384 1382 1390 1405 1402 1411 1389 1377 1367 1365 1369 1373 1378 1387 1394 1400 1405 1410 1416 1423 1429 1436 1441 1446 1450 1455 1458 1461 1464 1466 1467 1468 1469 1468 1467 1465 1463 1461 1458 1455 1451
1387 1374 1382 1382 1380 1384 1392 1403 1408 1396 1365 1362 1367 1369 1374 1379 1386 1393 1398 1403 1409 1415 1421 1428 1433 1438 1443 1449 1453 1457 1460 1462 1464 1465 1466 1466 1465 1464 1462 1460 1458 1454 1450 1446
1372 1365 1372 1372 1367 1384 1390 1383 1391 1379 1365 1363 1367 1371 1375 1380 1385 1389 1394 1399 1405 1412 1419 1426 1431 1437 1442 1447 1452 1456 1458 1461 1462 1464 1464 1463 1462 1461 1459 1457 1454 1450 1446 1442
1375 1372 1375 1356 1352 1355 1363 1362 1364 1361 1363 1364 1366 1373 1377 1382 1383 1387 1392 1397 1404 1412 1419 1426 1432 1437 1442 1447 1451 1454 1457 1459 1461 1461 1461 1461 1460 1458 1456 1453 1450 1446 1442 1438
1382 1382 1367 1356 1358 1358 1359 1360 1360 1362 1365 1368 1371 1375 1380 1382 1385 1389 1393 1399 1405 1412 1419 1425 1431 1437 1442 1446 1450 1453 1455 1457 1459 1459 1459 1458 1457 1455 1452 1449 1446 1442 1438 1433
1395 1390 1378 1362 1358 1358 1357 1373 1361 1362 1365 1368 1371 1382 1382 1381 1385 1390 1395 1400 1406 1414 1420 1426 1431 1436 1441 1445 1448 1451 1454 1456 1457 1457 1456 1455 1454 1452 1449 1445 1442 1438 1434 1429
1392 1387 1379 1363 1360 1360 1368 1373 1361 1361 1363 1366 1369 1373 1377 1382 1385 1390 1396 1402 1409 1415 1420 1426 1431 1437 1441 1445 1448 1451 1452 1453 1454 1454 1453 1452 1451 1448 1445 1442 1438 1434 1429 1425
1390 1392 1392 1361 1359 1361 1365 1362 1362 1360 1361 1367 1371 1375 1380 1385 1388 1394 1398 1405 1411 1416 1422 1428 1434 1438 1441 1444 1447 1449 1450 1451 1452 1452 1451 1450 1448 1445 1442 1437 1433 1428 1423 1419
1377 1377 1366 1363 1363 1363 1363 1362 1364 1363 1365 1368 1375 1381 1386 1390 1395 1399 1403 1409 1414 1419 1424 1431 1435 1439 1441 1444 1446 1448 1449 1449 1450 1450 1448 1446 1444 1441 1438 1433 1428 1423 1418 1413
1370 1363 1365 1365 1364 1364 1365 1365 1367 1368 1370 1374 1377 1385 1389 1394 1399 1403 1409 1413 1417 1421 1426 1430 1436 1439 1442 1444 1445 1447 1447 1448 1448 1447 1446 1444 1441 1437 1433 1428 1423 1419 1414 1409
1368 1365 1366 1365 1366 1366 1367 1369 1371 1374 1376 1379 1382 1390 1393 1398 1403 1407 1411 1416 1421 1424 1428 1432 1436 1439 1441 1443 1444 1445 1446 1446 1446 1445 1443 1440 1437 1432 1429 1426 1421 1416 1412 1407
1364 1356 1358 1360 1363 1367 1368 1371 1375 1376 1381 1386 1389 1392 1398 1402 1407 1410 1415 1419 1423 1426 1430 1433 1436 1439 1441 1442 1444 1445 1445 1444 1443 1442 1439 1436 1432 1430 1427 1422 1418 1414 1409 1404
1354 1354 1357 1359 1364 1368 1371 1375 1379 1382 1386 1389 1395 1398 1402 1405 1410 1414 1417 1421 1424 1428 1431 1434 1436 1439 1440 1442 1443 1443 1443 1442 1440 1438 1435 1432 1428 1424 1420 1417 1414 1410 1404 1399
1353 1354 1361 1363 1366 1371 1373 1378 1383 1387 1391 1394 1397 1402 1405 1408 1412 1416 1419 1423 1426 1429 1432 1434 1436 1438 1440 1441 1441 1441 1441 1440 1438 1435 1432 1428 1425 1421 1417 1412 1406 1403 1400 1395
1354 1354 1356 1361 1367 1372 1377 1381 1385 1390 1394 1398 1402 1405 1408 1410 1414 1417 1420 1424 1427 1430 1433 1435 1436 1438 1439 1440 1440 1440 1439 1437 1434 1432 1429 1425 1421 1417 1413 1408 1403 1398 1394 1390
1355 1357 1360 1362 1368 1374 1378 1383 1386 1391 1396 1400 1404 1408 1410 1413 1415 1419 1422 1425 1428 1430 1433 1435 1436 1438 1438 1439 1439 1438 1436 1434 1431 1429 1425 1422 1418 1414 1409 1404 1399 1395 1390 1385
1354 1361 1363 1366 1370 1375 1380 1385 1389 1393 1398 1402 1405 1408 1411 1414 1417 1420 1423 1426 1429 1431 1433 1435 1437 1438 1438 1438 1437 1436 1434 1431 1428 1425 1422 1418 1414 1409 1405 1401 1396 1391 1387 1382
1353 1356 1360 1362 1367 1375 1382 1388 1392 1396 1400 1403 1407 1410 1413 1415 1418 1421 1424 1426 1429 1431 1434 1435 1436 1436 1436 1436 1435 1433 1430 1427 1424 1421 1418 1414 1410 1406 1402 1398 1393 1388 1383 1378
1355 1357 1362 1367 1374 1379 1385 1390 1394 1398 1402 1406 1409 1412 1415 1418 1420 1422 1425 1428 1430 1432 1434 1435 1435 1436 1435 1434 1431 1429 1427 1424 1421 1418 1414 1410 1406 1403 1398 1394 1389 1384 1379 1373
1355 1359 1364 1370 1378 1383 1387 1392 1396 1400 1404 1408 1411 1413 1416 1419 1422 1424 1426 1428 1431 1432 1433 1434 1434 1434 1433 1431 1429 1426 1423 1420 1417 1414 1410 1406 1402 1398 1394 1390 1386 1380 1375 1370
1357 1361 1365 1372 1378 1385 1390 1394 1398 1402 1406 1410 1413 1415 1418 1421 1424 1425 1427 1429 1430 1431 1432 1432 1432 1431 1430 1428 1426 1423 1421 1417 1414 1410 1406 1402 1398 1394 1390 1386 1381 1376 1371 1366
1359 1363 1368 1375 1381 1386 1393 1397 1401 1404 1407 1411 1414 1417 1419 1421 1424 1426 1428 1430 1430 1430 1431 1430 1430 1428 1427 1425 1422 1419 1416 1413 1410 1406 1402 1398 1395 1390 1386 1381 1376 1371 1367 1362
1362 1367 1372 1379 1383 1389 1395 1400 1404 1406 1409 1412 1415 1417 1420 1422 1425 1426 1427 1428 1429 1429 1429 1429 1428 1426 1424 1421 1418 1416 1413 1410 1406 1403 1399 1394 1390 1386 1382 1377 1372 1368 1363 1358
1365 1371 1377 1383 1388 1392 1396 1401 1405 1408 1411 1414 1417 1420 1422 1422 1424 1426 1428 1428 1428 1428 1428 1427 1426 1424 1422 1419 1416 1413 1410 1407 1403 1400 1396 1391 1386 1382 1378 1374 1369 1365 1360 1355
1370 1376 1381 1386 1390 1394 1398 1401 1405 1409 1412 1415 1418 1420 1422 1424 1425 1426 1427 1427 1427 1427 1426 1425 1423 1421 1418 1416 1413 1410 1407 1403 1399 1395 1391 1387 1383 1379 1375 1371 1366 1361 1357 1353
1376 1380 1385 1390 1392 1396 1399 1403 1406 1410 1413 1415 1418 1421 1422 1424 1425 1426 1426 1426 1426 1425 1424 1423 1421 1418 1416 1413 1410 1407 1403 1400 1396 1392 1388 1384 1380 1376 1372 1368 1363 1360 1356 1352
1380 1383 1387 1392 1396 1399 1402 1405 1408 1410 1414 1417 1418 1421 1423 1424 1425 1426 1426 1425 1425 1424 1422 1420 1418 1415 1413 1410 1407 1404 1400 1396 1392 1388 1385 1381 1378 1374 1369 1365 1361 1358 1354 1351